User: anonymous   Login
Location: Hale Hill Observatory
(39.3806°N, 86.8431°W)
Time: 23:42:05
(UTC-04:00)
Language:

Cosmos 990 Rocket - Orbit

View from above orbital plane
View from above orbital plane
View from above satellite
View from above satellite

Ground track
Ground track

The orbit data is extracted from the following two-line orbital elements,

1 10677U 78019B   17117.94666059 +.00000069 +00000-0 +30182-4 0  9991
2 10677 074.0401 034.2387 0014429 123.5732 236.6803 14.40018898055000
Epoch (UTC): 27 April 2017 22:43:11
Eccentricity: 0.0014429
inclination: 74.0401°
perigee height: 748 km
apogee height: 769 km
right ascension of ascending node: 34.2387°
argument of perigee: 123.5732°
revolutions per day: 14.40018898
mean anomaly at epoch: 236.6803°
orbit number at epoch: 5500

The dashed part of the orbit path shows where the satellite is in the earth's shadow,  

DLR